This is the latest recevied weather packets stored in our database for station/object KC3VCX. If no packets are shown the sender has not sent any weather packets the latest 10 day(s).
| Time | Temp. | Humidity | Pressure | Rain* | Wind** | Luminosity | Snow |
|---|---|---|---|---|---|---|---|
| 1777807352 | 1.67° C | 84% | 1019 hPa | 0 mm | - | 48 W/m² | - |
| 1777807047 | 1.11° C | 85% | 1018.9 hPa | 0 mm | - | 43 W/m² | - |
| 1777806744 | 0.56° C | 86% | 1018.8 hPa | 0 mm | - | 38 W/m² | - |
| 1777806440 | 0.56° C | 87% | 1018.8 hPa | 0 mm | - | 34 W/m² | - |
| 1777806137 | 0° C | 88% | 1018.7 hPa | 0 mm | - | 26 W/m² | - |
| 1777805834 | 0° C | 88% | 1018.6 hPa | 0 mm | - | 23 W/m² | - |
| 1777805531 | -0.56° C | 88% | 1018.8 hPa | 0 mm | - | 21 W/m² | - |
| 1777805228 | -0.56° C | 88% | 1018.5 hPa | 0 mm | - | 18 W/m² | - |
| 1777804926 | -0.56° C | 88% | 1018.6 hPa | 0 mm | - | 15 W/m² | - |
| 1777804624 | -0.56° C | 88% | 1018.5 hPa | 0 mm | - | 12 W/m² | - |
| 1777804322 | -0.56° C | 89% | 1018.6 hPa | 0 mm | - | 10 W/m² | - |
| 1777804018 | -0.56° C | 89% | 1018.5 hPa | 0 mm | - | 7 W/m² | - |
| 1777803715 | -0.56° C | 89% | 1018.4 hPa | 0 mm | - | 5 W/m² | - |
| 1777803411 | -0.56° C | 89% | 1018.4 hPa | 0 mm | - | 3 W/m² | - |
| 1777803109 | -0.56° C | 89% | 1018.3 hPa | 0 mm | - | 2 W/m² | - |
| 1777802806 | -0.56° C | 88% | 1018.1 hPa | 0 mm | - | 1 W/m² | - |
| 1777802504 | -0.56° C | 88% | 1018.1 hPa | 0 mm | - | 0 W/m² | - |
| 1777802201 | -0.56° C | 88% | 1018.2 hPa | 0 mm | - | 0 W/m² | - |
| 1777801899 | -0.56° C | 88% | 1018.1 hPa | 0 mm | - | 0 W/m² | - |
| 1777801596 | -0.56° C | 88% | 1018.3 hPa | 0 mm | - | 0 W/m² | - |
| 1777801293 | -0.56° C | 88% | 1018 hPa | 0 mm | - | 0 W/m² | - |
| 1777800989 | 0° C | 88% | 1018.3 hPa | 0 mm | - | 0 W/m² | - |
| 1777800686 | -0.56° C | 88% | 1018.1 hPa | 0 mm | - | 0 W/m² | - |
| 1777800382 | -0.56° C | 88% | 1018.1 hPa | 0 mm | - | 0 W/m² | - |
| 1777800079 | -0.56° C | 88% | 1018.2 hPa | 0 mm | - | 0 W/m² | - |
* Rain latest hour (hover to see other rain measurements)
** Current wind speed in m/s (hover to see current wind gust speed)